Upstream stations:
Downstream station:
SHEF ID: EAGO2 Mountain Fork near Eagletown, OK
STATION TYPE:
Regulating: Stage = 9.00, Flow = 8444
STAGE RIV-FLOW BAT-LOAD
ft cfs volt
Ccp-Rev Ccp-Rev Ccp-Rev
(US/Central)
01/30 00:00 0.99 179 12.73
01/30 01:00 0.98 176 12.73
01/30 02:00 0.96 169 12.73
01/30 03:00 0.95 166 12.65
01/30 04:00 0.94 163 12.65
01/30 05:00 0.93 160 12.65
01/30 06:00 0.92 157 12.65
01/30 07:00 0.91 154 12.57
01/30 08:00 0.89 148 ----
01/30 09:00 0.88 145 12.65
01/30 10:00 0.88 145 12.65
01/30 11:00 0.88 145 12.81
01/30 12:00 0.87 142 13.92
01/30 13:00 0.86 139 13.92
01/30 14:00 0.85 136 13.92
01/30 15:00 0.84 133 13.92
01/30 16:00 0.84 133 13.92
01/30 17:00 0.83 130 13.84
01/30 18:00 0.83 130 13.13
01/30 19:00 0.82 127 12.97
01/30 20:00 0.81 124 12.89
01/30 21:00 0.80 121 12.89
01/30 22:00 0.79 118 12.81
01/30 23:00 0.80 121 12.81